This is the latest recevied weather packets stored in our database for station/object CE3MXM-12. If no packets are shown the sender has not sent any weather packets the latest 1 day(s).
| Time | Temp. | Humidity | Pressure | Rain* | Wind** | Luminosity | Snow |
|---|---|---|---|---|---|---|---|
| 1778022314 | 12.22° C | 91% | 1014.5 hPa | - | 4.02 m/s, 335° | - | - |
| 1778022014 | 12.22° C | 91% | 1014.1 hPa | - | 0 m/s | - | - |
| 1778021714 | 12.22° C | 91% | 1014.1 hPa | - | 0.45 m/s, 322° | - | - |
| 1778021414 | 12.22° C | 91% | 1014.1 hPa | - | 2.68 m/s, 315° | - | - |
| 1778021113 | 12.22° C | 91% | 1013.8 hPa | - | 4.92 m/s, 343° | - | - |
| 1778020813 | 12.22° C | 91% | 1013.8 hPa | - | 3.13 m/s, 320° | - | - |
| 1778020513 | 12.22° C | 91% | 1013.7 hPa | - | 2.68 m/s, 333° | - | - |
| 1778020216 | 12.22° C | 91% | 1014 hPa | - | 3.58 m/s, 306° | - | - |
| 1778019913 | 12.22° C | 91% | 1014 hPa | - | 4.47 m/s, 207° | - | - |
| 1778019613 | 12.78° C | 90% | 1013.9 hPa | - | 4.02 m/s, 295° | - | - |
| 1778019313 | 12.78° C | 91% | 1013.9 hPa | - | 2.24 m/s, 303° | - | - |
| 1778019013 | 12.78° C | 90% | 1013.8 hPa | - | 0.89 m/s, 314° | - | - |
| 1778018713 | 12.78° C | 90% | 1013.8 hPa | - | 3.13 m/s, 269° | - | - |
| 1778018412 | 12.78° C | 90% | 1013.7 hPa | - | 3.58 m/s, 293° | - | - |
| 1778018126 | 12.78° C | 90% | 1013.6 hPa | - | 0.45 m/s, 321° | - | - |
| 1778017813 | 12.78° C | 90% | 1013.6 hPa | - | 4.47 m/s, 310° | - | - |
| 1778017512 | 12.78° C | 90% | 1013.6 hPa | - | 0.89 m/s, 175° | - | - |
| 1778017212 | 12.78° C | 89% | 1013.6 hPa | - | 8.49 m/s, 346° | - | - |
| 1778016912 | 13.33° C | 88% | 1013.2 hPa | - | 4.92 m/s, 180° | - | - |
| 1778016612 | 13.33° C | 87% | 1013.5 hPa | - | 3.13 m/s, 358° | - | - |
| 1778016312 | 13.33° C | 86% | 1013.4 hPa | - | 0.45 m/s, 319° | - | - |
| 1778016012 | 13.33° C | 85% | 1013.6 hPa | - | 0.89 m/s, 303° | - | - |
| 1778015711 | 13.89° C | 84% | 1013.4 hPa | - | 2.68 m/s, 264° | - | - |
| 1778015412 | 13.89° C | 83% | 1013.7 hPa | - | 0.89 m/s, 313° | - | - |
| 1778015111 | 13.89° C | 82% | 1013.6 hPa | - | 0.89 m/s, 131° | - | - |
* Rain since midnight (hover to see other rain measurements)
** Current wind speed in m/s (hover to see current wind gust speed)